Weather History for KSLN - December, 2014

Change the Weather History Date:

Thursday, December 11, 2014

  Actual Average Record
Temperature  
Mean Temperature 40 °F 33 °F  
Max Temperature 43 °F 43 °F 75 °F (1939)
Min Temperature 36 °F 23 °F 0 °F (1963)
Degree Days  
Heating Degree Days 25 32  
Month to date heating degree days 305 337  
Since 1 July heating degree days 1302 1289  
Cooling Degree Days 0 0  
Month to date cooling degree days 0 0  
Year to date cooling degree days 1801 1647  
Moisture  
Dew Point 37 °F    
Average Humidity 89    
Maximum Humidity 96    
Minimum Humidity 82    
Precipitation  
Precipitation 0.00 in 0.03 in 1.31 in (2007)
Month to date precipitation 0.56 0.39  
Year to date precipitation 27.67 30.95  
Sea Level Pressure  
Sea Level Pressure 30.21 in    
Wind  
Wind Speed 5 mph (ESE)    
Max Wind Speed 9 mph    
Max Gust Speed 11 mph    
Visibility 4 miles    
Events      
T = Trace of Precipitation, MM = Missing Value Source: NWS Daily Summary

Daily Weather History Graph

Daily Weather History Graph

Search for Another Location

Airport or City:

Trip Planner

Search our weather history database for the weather conditions in past years. The results will help you decide how hot, cold, wet, or windy it might be!

Date:

Astronomy

Dec. 11, 2014 Rise Set
Actual Time 7:38 AM CST 5:08 PM CST
Civil Twilight 7:09 AM CST 5:38 PM CST
Nautical Twilight 6:35 AM CST 6:12 PM CST
Astronomical Twilight 6:03 AM CST 6:44 PM CST
Moon 10:18 PM CST (12/11) 11:05 AM CST (12/11)
Length of Visible Light 10h 29m
Length of Day
9h 30m
Waning Gibbous, 75% of the Moon is Illuminated
Dec 11
Waning Gibbous
Dec 14
Last Quarter
Dec 21
New
Dec 28
First Quarter
Jan 4
Full

Hourly Weather History & Observations

Time (CST) Temp. Windchill Dew Point Humidity Pressure Visibility Wind Dir Wind Speed Gust Speed Precip Events Conditions
12:53 AM 37.0 °F 34.5 °F 34.0 °F 89% 30.22 in 5.0 mi East 3.5 mph - N/A   Overcast
1:53 AM 37.0 °F 34.5 °F 34.0 °F 89% 30.22 in 5.0 mi ENE 3.5 mph - N/A   Overcast
2:36 AM 37.0 °F 33.3 °F 34.0 °F 89% 30.19 in 5.0 mi NE 4.6 mph - N/A   Overcast
2:53 AM 37.0 °F - 34.0 °F 89% 30.22 in 5.0 mi Calm Calm - N/A   Overcast
3:02 AM 37.0 °F 34.5 °F 34.0 °F 89% 30.20 in 5.0 mi NNE 3.5 mph - N/A   Overcast
3:16 AM 37.0 °F 34.5 °F 34.0 °F 89% 30.20 in 5.0 mi ENE 3.5 mph - N/A   Overcast
3:31 AM 37.0 °F 34.5 °F 34.0 °F 89% 30.20 in 4.0 mi ENE 3.5 mph - N/A   Overcast
3:53 AM 37.0 °F 33.3 °F 34.0 °F 89% 30.22 in 4.0 mi East 4.6 mph - N/A   Overcast
4:45 AM 36.0 °F 32.1 °F 34.0 °F 93% 30.19 in 4.0 mi East 4.6 mph - N/A   Overcast
4:53 AM 36.0 °F 31.1 °F 34.0 °F 93% 30.22 in 4.0 mi East 5.8 mph - N/A   Overcast
5:53 AM 36.0 °F 31.1 °F 34.0 °F 93% 30.21 in 4.0 mi East 5.8 mph - N/A   Overcast
6:13 AM 36.0 °F 32.1 °F 34.0 °F 93% 30.20 in 4.0 mi East 4.6 mph - N/A   Overcast
6:31 AM 36.0 °F 32.1 °F 34.0 °F 93% 30.20 in 4.0 mi East 4.6 mph - N/A   Overcast
6:53 AM 36.0 °F 33.3 °F 34.0 °F 93% 30.23 in 4.0 mi East 3.5 mph - N/A   Overcast
7:53 AM 37.0 °F 32.4 °F 35.1 °F 93% 30.24 in 3.0 mi East 5.8 mph - N/A   Overcast
8:53 AM 37.0 °F 32.4 °F 35.1 °F 93% 30.25 in 3.0 mi East 5.8 mph - N/A   Overcast
9:00 AM 37.0 °F 33.3 °F 35.1 °F 93% 30.22 in 1.8 mi East 4.6 mph - N/A   Overcast
9:53 AM 37.9 °F 34.4 °F 36.0 °F 93% 30.26 in 2.0 mi ESE 4.6 mph - N/A   Overcast
10:14 AM 37.9 °F 35.5 °F 36.0 °F 93% 30.24 in 3.0 mi ESE 3.5 mph - N/A   Overcast
10:41 AM 39.0 °F 35.7 °F 36.0 °F 89% 30.24 in 3.0 mi ESE 4.6 mph - N/A   Overcast
10:53 AM 39.0 °F 36.8 °F 36.0 °F 89% 30.27 in 4.0 mi East 3.5 mph - N/A   Overcast
11:53 AM 39.9 °F 37.8 °F 37.0 °F 89% 30.24 in 5.0 mi Variable 3.5 mph - N/A   Overcast
12:53 PM 39.9 °F 36.7 °F 37.9 °F 93% 30.22 in 3.0 mi ESE 4.6 mph - N/A   Overcast
1:53 PM 42.1 °F 38.4 °F 37.9 °F 85% 30.20 in 6.0 mi SE 5.8 mph - N/A   Overcast
2:53 PM 43.0 °F 39.5 °F 39.0 °F 86% 30.19 in 5.0 mi SE 5.8 mph - N/A   Overcast
3:53 PM 43.0 °F 40.3 °F 39.0 °F 86% 30.21 in 4.0 mi ESE 4.6 mph - N/A   Overcast
4:53 PM 42.1 °F 37.1 °F 39.9 °F 92% 30.20 in 2.0 mi SE 8.1 mph - N/A   Overcast
5:01 PM 42.1 °F 37.1 °F 39.9 °F 92% 30.18 in 1.5 mi SE 8.1 mph - N/A   Overcast
5:20 PM 42.1 °F 37.7 °F 39.9 °F 92% 30.19 in 2.5 mi ESE 6.9 mph - N/A   Overcast
5:27 PM 42.1 °F 37.7 °F 39.9 °F 92% 30.19 in 3.0 mi ESE 6.9 mph - N/A   Overcast
5:45 PM 42.1 °F 39.2 °F 39.9 °F 92% 30.19 in 4.0 mi East 4.6 mph - N/A   Overcast
5:53 PM 42.1 °F 39.2 °F 39.9 °F 92% 30.22 in 4.0 mi East 4.6 mph - N/A   Overcast
6:13 PM 42.1 °F 39.2 °F 39.9 °F 92% 30.19 in 4.0 mi ESE 4.6 mph - N/A   Overcast
6:25 PM 42.1 °F 38.4 °F 39.9 °F 92% 30.19 in 4.0 mi ESE 5.8 mph - N/A   Overcast
6:53 PM 42.1 °F 37.7 °F 39.9 °F 92% 30.21 in 5.0 mi East 6.9 mph - N/A   Overcast
7:16 PM 42.1 °F 37.7 °F 39.9 °F 92% 30.19 in 4.0 mi ESE 6.9 mph - N/A   Overcast
7:53 PM 42.1 °F 37.7 °F 39.9 °F 92% 30.22 in 4.0 mi ESE 6.9 mph - N/A   Overcast
8:12 PM 42.1 °F 37.1 °F 39.9 °F 92% 30.21 in 2.5 mi ESE 8.1 mph - N/A   Overcast
8:53 PM 42.1 °F 40.2 °F 41.0 °F 96% 30.23 in 1.8 mi SSE 3.5 mph - N/A   Overcast
9:31 PM 42.1 °F 39.2 °F 41.0 °F 96% 30.21 in 2.0 mi SE 4.6 mph - N/A   Overcast
9:53 PM 42.1 °F 39.2 °F 41.0 °F 96% 30.23 in 2.5 mi ESE 4.6 mph - N/A   Overcast
10:01 PM 42.1 °F 39.2 °F 41.0 °F 96% 30.21 in 3.0 mi SE 4.6 mph - N/A   Overcast
10:35 PM 43.0 °F 40.3 °F 39.9 °F 89% 30.21 in 3.0 mi SE 4.6 mph - N/A   Overcast
10:53 PM 43.0 °F 40.3 °F 41.0 °F 93% 30.24 in 3.0 mi SE 4.6 mph - N/A   Overcast
11:53 PM 43.0 °F 40.3 °F 41.0 °F 93% 30.24 in 4.0 mi SE 4.6 mph - N/A   Overcast